sat.trackr.live / text

‹ back to catalog

ONEWEB-0716

NORAD 55177 · 2023-004AP

PAYLOAD ACTIVE UNKNOWN

§ Identity

Operator
Country
UK
Launch date
2023-01-10
Launch site
AFETR
Launch vehicle
Mass (kg)
RCS (m²)

Purposes: comms

External: N2YO · Heavens-Above · Gunter

§ Orbital elements

Epoch: 2026-09-19T01:17:57.993216Z

Period
109.29 min
Inclination
87.9199°
Eccentricity
0.0001952
Mean motion
13.17650024 rev/d
Perigee alt
1,192.2 km
Apogee alt
1,195.2 km
Semi-major
7,571.8 km
B*
1.1754e-4
RAAN
347.2286°
Arg perigee
94.6034°
Mean anomaly
265.5320°
Rev number
17,994

§ Raw data

ONEWEB-07161 55177U 23004AP  26262.05414344  .00000059  00000+0  11754-3 0  99912 55177  87.9199 347.2286 0001952  94.6034 265.5320 13.17650024179947

JSON: /api/v1/satellites/55177 · /tle

For live sub-satellite position, see the globe view (requires WebGL).

§ Visibility from observer

Set your observer location to see the next 7 days of passes ≥ 10°. The values pass through the URL so the page stays shareable.

No JS? Fill the form by hand. The geolocation button needs JavaScript.